Location: Ulm
(48.3980°N, 9.9777°E)
Time: 20:08:30
(UTC+01:00)

ISS - Pass Details

Date: 13 January 2018
Orbit: 401 x 407 km, 51.6° (Epoch: 17 January)

Event Time Altitude Azimuth Distance (km) Brightness Sun altitude
Exits shadow 05:34:32 31° 119° (ESE) 743 -2.0 -24.7°
Drops below altitude 10° 05:36:22 10° 116° (ESE) 1,462 -0.1 -24.4°
Sets 05:38:27 0° 116° (ESE) 2,320 1.2 -24.1°
